Back to catalog

STARLINK-32810

AliveCommunicationsVLEO
NORAD 63037·PAYLOAD·🇺🇸 United States

Launched Feb 18, 2025 from Cape Canaveral Space Force Station

Loading…

Next Passes (next 24 hours)

TLE

FreshSource: CelesTrak SupGP

Epoch: Sep 14, 2026, 15:05 UTC

1 63037C 25034J   26257.62895833 -.00004608  00000+0 -13614-3 0  2573
2 63037  53.1566  97.3156 0001283 101.8690 108.7579 15.34396815    10

Track STARLINK-32810 in real time with AllMySat

Download on the App Store